Home   Weather   Abu Dhabi   Past weeks

Flag for United Arab Emirates Past Weather in Abu Dhabi, Abu Dhabi, United Arab Emirates — Yesterday and Last 2 Weeks

Now
66 °F

Clear.


Feels Like: 66 °F
Forecast: 63 / 72 °F
Wind: 3 mph from Northwest

Location: Abu Dhabi Bateen Airport

Current Time: Jan 16, 2017 at 11:47:23 pm

Latest Report: Jan 16, 2017 at 11:00 pm


Visibility: 10 mi

Pressure: 30.07 "Hg

Humidity: 78%

Dew Point: 59 °F

Location of Abu DhabiLocation

Past Weather in Abu Dhabi — Graph

°F

Abu Dhabi Temperature Yesterday

Maximum temperature yesterday: 72 °F (at 1:00 pm)
Minimum temperature yesterday: 64 °F (at 1:00 am)
Average temperature yesterday: 67 °F

High & Low Weather Summary for the Past Weeks

 TemperatureHumidityPressure
High81 °F (Jan 10, 3:00 pm)100% (Jan 2, 5:00 am)30.15 "Hg (Jan 2, 5:00 am)
Low59 °F (Jan 16, 6:00 am)23% (Jan 10, 4:00 pm)29.86 "Hg (Jan 13, 3:00 pm)
Average68 °F72%30.02 "Hg
* Reported Jan 1 10:00 pm — Jan 16 10:00 pm, Abu Dhabi, Weather by CustomWeather, © 2017

Note: Actual official high and low records may vary slightly from our data, if they occured in-between our weather recording intervals... More about our weather records

Advertising

Abu Dhabi Weather History for the Previous 24 Hours

Scroll right to see more
 ConditionsComfort  
Time TempWeatherWind HumidityBarometerVisibility
10:00 pm
Mon, Jan 16
66 °FClear.2 mph78%30.07 "Hg10 mi
9:00 pm66 °FClear.6 mph78%30.07 "Hg10 mi
8:00 pm68 °FClear.5 mph73%30.07 "Hg10 mi
7:00 pm68 °FClear.5 mph73%30.07 "Hg10 mi
6:00 pm70 °FPassing clouds.5 mph64%30.04 "HgN/A
5:00 pm70 °FPassing clouds.6 mph64%30.04 "HgN/A
4:00 pm72 °FPassing clouds.7 mph61%30.01 "HgN/A
3:00 pm73 °FPassing clouds.7 mph57%30.01 "HgN/A
2:00 pm72 °FPassing clouds.7 mph61%30.04 "HgN/A
1:00 pm72 °FPassing clouds.6 mph73%30.04 "HgN/A
12:00 pm72 °FPassing clouds.3 mph61%30.07 "HgN/A
11:00 am70 °FSunny.3 mph64%30.09 "Hg10 mi
10:00 am66 °FClear.6 mph73%30.09 "Hg5 mi
9:00 am64 °FClear.3 mph78%30.09 "Hg5 mi
8:00 am61 °FClear.5 mph88%30.07 "Hg4 mi
7:00 am59 °FClear.2 mph88%30.07 "Hg4 mi
6:00 am59 °FClear.1 mph94%30.04 "Hg5 mi
5:00 am61 °FClear.3 mph88%30.01 "Hg10 mi
4:00 am61 °FClear.2 mph88%30.01 "Hg10 mi
3:00 am64 °FClear.5 mph78%30.04 "Hg10 mi
2:00 am63 °FClear.2 mph83%30.04 "Hg10 mi
1:00 am64 °FClear.2 mph78%30.04 "Hg10 mi
12:00 am66 °FClear.1 mph73%30.07 "Hg10 mi
11:00 pm
Sun, Jan 15
66 °FClear.3 mph68%30.07 "Hg10 mi
Weather by CustomWeather, © 2017

See weather overviewHow to use our weather pages